Location: Devore Heights
(34.2372°N, 117.4156°W)
Time: 17:41:46
(UTC+00:00)

S-56A Canister/Altair - Pass Details

Date: 17 September 2024
Orbit: 636 x 2487 km, 38.9° (Epoch: 14 October)

Event Time Altitude Azimuth Distance (km) Brightness Sun altitude
Rises 08:53:50 0° 284° (WNW) 4,688 - -50.2°
Reaches altitude 10° 08:57:07 10° 274° (W) 3,964 - -49.9°
Maximum altitude 09:06:04 30° 219° (SW) 3,229 - -49.0°
Drops below altitude 10° 09:17:23 10° 165° (SSE) 5,028 - -47.7°
Sets 09:22:17 0° 156° (SSE) 6,128 - -47.0°
